Baltimore, MD

10:18 PM EST on February 19, 2017 (GMT -0500)
Baltimore-Washington International

Weather History for KBWI - May, 2014

Change the Weather History Date:

Wednesday, May 28, 2014

  Actual Average Record
Temperature  
Mean Temperature 70 °F 67 °F  
Max Temperature 83 °F 77 °F 97 °F (1941)
Min Temperature 57 °F 56 °F 38 °F (1961)
Degree Days  
Heating Degree Days 0 2  
Month to date heating degree days 65 128  
Since 1 July heating degree days 4995 4743  
Cooling Degree Days 5 4  
Month to date cooling degree days 75 58  
Year to date cooling degree days 82 72  
Growing Degree Days 21 (Base 50)    
Moisture  
Dew Point 64 °F    
Average Humidity 76    
Maximum Humidity 93    
Minimum Humidity 58    
Precipitation  
Precipitation 0.07 in 0.13 in 2.46 in (1968)
Month to date precipitation 3.05 3.59  
Year to date precipitation 23.32 16.63  
Snow  
Snow 0.00 in 0.00 in - ()
Month to date snowfall 0.0 0.0  
Since 1 July snowfall 39.0 20.1  
Snow Depth 0.00 in    
Sea Level Pressure  
Sea Level Pressure 29.92 in    
Wind  
Wind Speed 9 mph (WNW)    
Max Wind Speed 22 mph    
Max Gust Speed 26 mph    
Visibility 9 miles    
Events Rain    
T = Trace of Precipitation, MM = Missing Value Source: NWS Daily Summary

Daily Weather History Graph

Daily Weather History Graph

Search for Another Location

Airport or City:

Trip Planner

Search our weather history database for the weather conditions in past years. The results will help you decide how hot, cold, wet, or windy it might be!

Date:

Astronomy

May. 28, 2014 Rise Set
Actual Time 5:44 AM EDT 8:24 PM EDT
Civil Twilight 5:12 AM EDT 8:55 PM EDT
Nautical Twilight 4:33 AM EDT 9:34 PM EDT
Astronomical Twilight 3:49 AM EDT 10:18 PM EDT
Moon 5:48 AM EDT (5/28) 8:21 PM EDT (5/28)
Length of Visible Light 15h 42m
Length of Day
14h 39m
Waning Crescent, 0% of the Moon is Illuminated
May 28
Waning Crescent
May 28
New
Jun 5
First Quarter
Jun 13
Full
Jun 19
Last Quarter

Hourly Weather History & Observations

Time (EDT) Temp. Heat Index Dew Point Humidity Pressure Visibility Wind Dir Wind Speed Gust Speed Precip Events Conditions
12:54 AM 69.1 °F - 66.9 °F 93% 29.87 in 5.0 mi WSW 8.1 mph - N/A   Mostly Cloudy
1:54 AM 68.0 °F - 66.0 °F 93% 29.86 in 8.0 mi WSW 6.9 mph - N/A   Overcast
2:54 AM 68.0 °F - 66.0 °F 93% 29.86 in 8.0 mi West 9.2 mph - 0.00 in Rain Light Rain
3:54 AM 68.0 °F - 64.9 °F 90% 29.84 in 10.0 mi West 6.9 mph - 0.00 in   Mostly Cloudy
4:54 AM 68.0 °F - 64.0 °F 87% 29.83 in 10.0 mi WSW 4.6 mph - N/A   Mostly Cloudy
5:54 AM 66.9 °F - 64.0 °F 90% 29.85 in 10.0 mi WSW 5.8 mph - N/A   Mostly Cloudy
6:54 AM 68.0 °F - 64.0 °F 87% 29.86 in 10.0 mi West 5.8 mph - N/A   Mostly Cloudy
7:54 AM 71.1 °F - 64.0 °F 78% 29.87 in 10.0 mi West 6.9 mph - N/A   Mostly Cloudy
8:54 AM 73.4 °F - 64.4 °F 73% 29.89 in 10.0 mi West 8.1 mph - N/A   Mostly Cloudy
9:54 AM 73.0 °F - 64.9 °F 76% 29.90 in 10.0 mi West 5.8 mph - N/A   Overcast
10:54 AM 75.9 °F - 66.0 °F 71% 29.91 in 10.0 mi WNW 8.1 mph - N/A   Mostly Cloudy
11:54 AM 77.0 °F - 66.0 °F 69% 29.91 in 10.0 mi NW 4.6 mph - N/A   Mostly Cloudy
12:54 PM 80.1 °F 82.1 °F 66.0 °F 62% 29.91 in 10.0 mi WNW 10.4 mph 16.1 mph N/A   Mostly Cloudy
1:54 PM 80.6 °F 82.7 °F 66.2 °F 61% 29.91 in 10.0 mi WNW 11.5 mph - N/A   Overcast
2:54 PM 81.0 °F 83.3 °F 66.9 °F 62% 29.91 in 10.0 mi WNW 8.1 mph - N/A   Mostly Cloudy
3:54 PM 81.0 °F 83.3 °F 66.9 °F 62% 29.90 in 10.0 mi WNW 6.9 mph - N/A   Mostly Cloudy
4:54 PM 81.0 °F 83.0 °F 66.0 °F 60% 29.89 in 10.0 mi NW 4.6 mph - N/A   Mostly Cloudy
5:54 PM 80.6 °F 82.3 °F 64.4 °F 58% 29.90 in 10.0 mi Variable 4.6 mph - N/A   Overcast
6:54 PM 73.4 °F - 68.0 °F 83% 29.92 in 7.0 mi East 17.3 mph - N/A   Overcast
7:54 PM 66.9 °F - 62.1 °F 84% 29.99 in 6.0 mi ENE 16.1 mph - N/A   Haze
8:54 PM 63.0 °F - 59.0 °F 87% 30.03 in 10.0 mi East 13.8 mph - N/A   Overcast
9:54 PM 61.0 °F - 57.0 °F 87% 30.07 in 10.0 mi ENE 15.0 mph - 0.00 in   Light Drizzle
10:24 PM 60.8 °F - 55.4 °F 82% 30.08 in 10.0 mi East 18.4 mph 25.3 mph 0.00 in   Light Drizzle
10:54 PM 60.1 °F - 54.0 °F 80% 30.09 in 10.0 mi East 18.4 mph 24.2 mph 0.00 in   Overcast
11:54 PM 59.0 °F - 55.0 °F 87% 30.10 in 10.0 mi East 12.7 mph - 0.00 in   Light Drizzle